Retour au catalogue

CZ-3A DEB

ActifGTO
NORAD 35558·DEBRIS·🇨🇳 China

Lancé Feb 2, 2007 depuis Xichang Satellite Launch Center

Loading…

TLE

PériméSource: Space-Track

Époque: Sep 13, 2026, 17:24 UTC

1 35558U 07003S   26256.72514931  .00000268  00000-0  36879-2 0  9990
2 35558  22.6932 113.9166 7463222 158.5019 267.0843  1.91861559 92639

Suivez CZ-3A DEB en temps réel avec AllMySat

Download on the App Store